CDT,Max TemperatureF,Mean TemperatureF,Min TemperatureF,Max Dew PointF,MeanDew PointF,Min DewpointF,Max Humidity, Mean Humidity, Min Humidity, Max Sea Level PressureIn, Mean Sea Level PressureIn, Min Sea Level PressureIn, Max VisibilityMiles, Mean VisibilityMiles, Min VisibilityMiles, Max Wind SpeedMPH, Mean Wind SpeedMPH, Max Gust SpeedMPH,PrecipitationIn, CloudCover, Events, WindDirDegrees
2013-6-1,60,56,53,55,50,45,94,81,63,30.03,29.77,29.51,10,10,7,31,12,38,0.00,7,,346
2013-6-2,66,55,44,46,40,36,93,58,32,30.12,30.06,30.01,10,10,10,13,7,17,0.00,2,,346
2013-6-3,71,56,42,46,41,37,87,54,31,30.03,29.97,29.89,10,10,10,21,7,30,0.00,2,Rain,116
2013-6-4,68,62,55,61,54,43,88,78,48,30.02,29.94,29.87,10,9,3,22,14,29,0.24,7,Rain-Thunderstorm,130
2013-6-5,69,61,53,55,50,45,88,69,43,30.01,29.97,29.95,10,10,10,12,7,16,0.00,7,,309
2013-6-6,62,55,48,52,49,46,94,75,59,30.06,30.03,30.00,10,10,7,12,5,,0.00,7,,38
2013-6-7,69,56,44,52,47,43,100,66,40,30.05,29.98,29.89,10,9,0,12,2,16,0.00,2,Fog,120
2013-6-8,66,62,57,55,51,46,82,70,55,29.88,29.84,29.82,10,10,5,17,10,25,0.03,4,Rain,127
2013-6-9,60,58,53,57,56,52,94,88,77,29.85,29.78,29.72,10,6,0,18,12,24,0.86,8,Fog-Rain,58
2013-6-10,75,64,53,61,57,52,100,80,53,29.88,29.83,29.79,10,6,0,9,3,,0.00,4,Fog,157
2013-6-11,78,69,60,64,57,46,94,73,36,29.94,29.86,29.81,10,8,3,14,5,17,0.01,1,Rain-Thunderstorm,37
2013-6-12,71,66,60,61,55,52,83,68,50,30.04,29.89,29.76,10,10,7,24,9,43,0.17,4,Rain-Thunderstorm,356
2013-6-13,78,64,51,57,52,46,88,60,34,30.13,30.07,30.02,10,10,10,9,5,,0.00,0,,63
2013-6-14,82,73,64,64,59,55,78,64,48,30.05,29.90,29.78,10,10,10,21,10,32,0.05,3,Rain-Thunderstorm,138
2013-6-15,80,71,62,64,52,39,94,55,23,29.95,29.89,29.81,10,10,4,16,8,20,0.00,0,,305
2013-6-16,86,70,53,55,50,43,88,53,25,29.95,29.91,29.86,10,10,7,29,9,58,0.01,0,Rain-Thunderstorm,260
2013-6-17,80,68,57,59,53,48,88,59,32,30.04,29.96,29.91,10,10,3,22,8,28,0.69,3,Rain-Thunderstorm,300
2013-6-18,78,66,55,61,55,52,94,66,39,30.09,30.04,29.98,10,10,10,10,6,,0.26,1,Rain-Thunderstorm,104
2013-6-19,89,76,62,61,57,48,83,56,24,30.01,29.93,29.85,10,10,10,13,7,10,0.00,1,,142
2013-6-20,87,78,69,70,65,59,88,64,46,29.96,29.85,29.73,10,10,4,22,9,29,0.18,3,Rain-Thunderstorm,138
2013-6-21,80,72,64,70,63,59,94,78,61,30.02,29.86,29.71,10,9,1,41,14,61,2.19,2,Rain-Thunderstorm,89
2013-6-22,80,72,64,68,64,61,94,77,57,29.94,29.88,29.75,10,9,3,16,5,21,0.02,2,Rain-Thunderstorm,114
2013-6-23,80,73,64,68,62,57,94,72,45,29.87,29.77,29.63,10,10,5,21,11,28,0.72,2,Rain-Thunderstorm,230
2013-6-24,80,70,60,70,64,57,94,77,61,29.89,29.82,29.76,10,10,7,15,5,21,0.00,0,,143
2013-6-25,89,78,66,72,69,64,94,75,52,29.78,29.72,29.65,10,10,5,15,9,20,0.00,2,,137
2013-6-26,87,78,68,70,64,55,88,63,33,29.84,29.74,29.63,10,10,7,25,8,28,0.24,1,Rain-Thunderstorm,292
2013-6-27,86,75,64,64,57,48,94,55,27,29.90,29.87,29.82,10,10,10,24,11,33,0.00,0,,297
2013-6-28,82,72,62,57,56,52,82,55,35,29.91,29.90,29.87,10,10,10,29,14,37,0.00,1,,320
2013-6-29,82,72,62,61,55,48,88,59,30,30.02,29.94,29.86,10,10,10,18,12,26,0.00,1,,1
2013-6-30,82,68,55,57,50,41,94,54,23,30.16,30.11,30.02,10,10,5,9,3,9,0.00,0,,45